Theta_e
310 310 311 310 312 301 307 308 304 308 315 312 308 309 310 310 307 303 313 311 313 318 319 321 323 322 322 322 324 326 328 332 336 335 337 339 340 341 342 343 345 348 349 351 351 353 353 354 355 356 358 361 361 362 363 365 366 367 369 369 369 369 369
310 313 312 311 312 313 310 304 307 314 317 315 310 302 307 304 301 303 308 307 309 308 306 319 318 317 318 320 321 322 328 332 333 333 336 338 339 341 344 346 348 349 350 351 351 351 353 354 355 357 359 362 362 362 363 364 365 365 367 369 368 369 369
309 311 311 309 312 314 310 309 315 308 303 303 309 308 300 299 299 301 305 307 309 310 310 314 315 316 318 320 322 321 323 330 333 334 336 338 340 341 342 344 346 348 349 350 352 351 352 354 358 359 359 360 361 362 364 363 364 365 367 367 369 369 370
309 309 307 301 305 311 312 314 311 313 310 307 305 306 308 307 300 300 301 305 305 313 313 315 316 319 320 319 320 321 322 327 334 336 336 337 339 341 341 343 345 347 348 349 350 350 350 353 356 357 357 357 357 359 363 363 364 367 368 368 369 368 369
308 301 305 303 305 304 305 306 306 309 309 312 311 310 307 304 302 301 301 299 306 314 317 316 318 320 321 320 320 322 322 324 329 337 336 338 340 341 342 343 344 346 348 348 349 351 351 353 356 356 355 355 355 357 359 360 362 364 364 367 368 368 369
303 304 308 307 307 308 307 305 304 307 306 304 301 301 311 308 304 300 301 300 309 316 319 320 319 320 320 321 321 322 323 323 327 337 339 340 342 343 344 343 344 345 348 348 349 350 352 352 353 354 354 355 355 355 356 358 358 360 360 365 368 369 369
305 307 310 311 310 310 309 309 306 308 308 308 305 298 303 308 307 309 307 304 306 318 321 321 321 321 320 322 321 321 322 324 325 337 338 340 343 343 342 343 343 344 348 349 349 352 353 352 354 355 355 354 355 355 355 357 356 358 359 362 367 370 369
310 311 312 312 312 309 307 308 310 308 305 307 306 306 309 306 307 304 305 302 307 318 324 323 321 324 321 323 322 322 322 323 334 338 339 342 343 345 344 343 342 345 347 351 352 352 353 354 355 356 355 356 355 355 355 356 356 357 358 360 365 368 368
304 306 309 308 311 309 306 305 307 309 309 309 309 310 312 305 306 307 304 298 305 317 325 333 330 322 319 320 322 329 332 334 333 338 340 340 344 346 344 343 343 345 347 350 352 353 355 355 355 357 356 356 355 356 356 355 356 357 359 361 364 366 366
295 295 296 298 301 304 306 307 307 308 307 307 306 303 305 300 308 310 305 305 311 317 322 323 324 325 325 322 322 322 326 336 337 338 341 343 344 345 344 344 344 346 350 353 354 356 357 357 357 358 358 356 356 357 357 357 357 358 359 360 362 364 362
302 304 308 310 310 307 303 305 306 306 307 308 308 307 304 302 307 305 309 310 311 313 315 317 318 320 319 319 321 320 324 333 336 343 343 343 344 345 343 345 346 350 351 354 356 358 358 357 358 359 358 357 356 359 359 358 359 360 362 361 363 363 361
308 309 309 310 310 307 307 305 305 306 307 307 306 303 302 311 305 300 309 313 309 311 315 317 318 319 320 321 322 322 326 336 340 342 348 344 342 344 345 346 348 349 352 356 357 359 359 357 359 359 358 357 358 359 359 359 359 359 360 363 364 363 361
308 309 309 310 310 309 308 308 306 306 307 307 305 306 306 309 304 302 310 313 311 313 314 316 319 320 321 320 321 321 322 322 342 348 344 341 340 343 343 347 348 350 352 354 357 357 357 358 358 359 358 359 360 361 361 362 360 360 364 365 365 363 362
309 309 309 310 308 308 308 308 308 308 307 306 307 306 307 306 308 309 309 313 312 313 315 316 318 321 321 321 323 322 322 322 340 343 344 339 339 339 342 346 348 350 352 355 356 356 357 357 358 357 358 359 359 359 359 359 361 361 364 366 365 363 360
307 309 310 310 309 308 307 308 308 308 308 307 308 307 308 309 308 308 308 310 311 317 319 319 320 322 320 320 319 320 324 326 328 338 338 340 338 339 344 348 348 350 352 353 355 355 356 356 358 358 359 360 360 358 359 360 361 362 364 365 363 361 360
304 308 308 308 309 308 307 307 308 308 307 306 307 306 308 307 307 308 308 307 308 314 318 318 319 319 319 321 323 322 325 324 330 338 337 339 342 341 344 346 348 349 350 353 354 354 354 357 359 359 360 360 360 358 360 359 360 361 364 364 361 360 360
303 307 308 308 308 306 303 304 307 309 309 309 310 310 310 310 310 307 305 306 313 315 316 317 319 317 317 320 321 327 331 338 338 339 340 340 343 343 346 347 347 348 349 352 354 354 355 356 358 359 361 360 360 360 361 362 363 362 363 362 362 361 361
304 306 307 308 304 297 299 311 312 311 309 309 307 307 309 311 311 309 311 313 317 317 316 317 318 318 320 326 334 334 336 337 344 340 340 341 343 344 345 347 347 350 350 351 353 353 356 358 358 360 362 360 361 361 360 362 362 363 364 363 361 360 360
304 306 307 301 296 298 311 316 316 314 313 312 310 311 311 312 313 313 313 314 316 318 319 319 320 324 325 325 328 330 337 343 341 344 342 343 344 345 346 348 348 350 351 353 354 353 354 354 356 358 359 360 361 359 360 361 362 363 364 363 361 359 358
309 305 304 295 297 310 312 314 317 318 315 314 312 309 311 313 313 314 313 314 315 318 320 320 322 325 327 334 338 341 339 337 336 333 335 341 343 343 346 350 349 351 349 351 352 355 355 354 355 357 358 358 357 358 361 361 362 363 363 362 360 357 356
302 307 303 302 309 308 309 310 318 319 315 313 310 305 309 314 315 314 314 315 316 316 318 320 321 331 328 326 327 329 331 334 333 331 332 335 342 344 347 347 348 352 354 355 356 358 356 355 355 356 357 357 358 358 359 359 361 361 361 360 359 357 356
308 305 303 303 302 299 305 315 320 322 321 321 320 317 312 320 317 317 316 316 318 318 318 319 325 329 322 317 318 324 328 332 335 333 334 335 340 342 345 349 351 355 355 355 358 354 355 355 355 356 356 356 358 358 358 358 358 358 358 359 359 358 357
306 305 300 301 299 303 316 317 318 321 322 321 320 312 307 318 319 319 317 316 319 320 319 319 330 323 314 314 320 325 332 333 333 334 335 337 339 343 347 350 352 351 355 356 353 354 354 352 354 358 357 357 357 357 357 356 357 358 358 359 359 358 357
305 304 302 301 306 303 315 318 319 320 324 318 316 303 303 327 324 329 323 318 318 321 322 327 327 321 314 314 321 335 334 333 334 338 341 343 345 348 351 349 351 353 354 352 350 353 354 357 360 359 358 358 358 357 357 358 357 358 359 359 361 361 358
304 303 303 305 307 318 317 319 321 320 321 319 308 300 311 324 328 327 327 327 328 325 327 330 323 325 325 335 335 333 334 335 338 341 341 343 344 343 342 344 350 356 355 355 355 356 361 362 360 360 359 359 358 359 359 358 358 359 361 362 361 360 358
302 304 301 303 306 318 318 323 320 322 314 306 307 319 325 328 328 331 328 326 328 330 332 330 327 330 333 334 335 335 337 341 342 343 345 346 348 351 354 354 351 351 351 356 359 360 362 361 360 361 362 360 360 360 359 358 360 361 362 362 360 358 355
305 304 302 299 294 315 320 320 322 323 314 317 321 325 328 331 330 331 332 329 328 329 330 331 334 334 334 337 340 342 344 345 347 349 350 351 350 350 352 354 354 355 355 355 354 357 360 362 362 363 363 360 359 359 357 360 361 363 361 359 358 356 353
300 302 299 299 309 318 322 319 314 321 321 323 325 326 327 331 330 332 335 337 334 334 337 336 337 341 344 346 346 347 348 348 349 349 350 349 349 349 350 351 352 352 352 352 353 356 358 359 360 361 360 357 356 357 359 362 362 361 361 358 355 353 352
307 304 307 321 322 322 323 325 323 323 324 325 326 327 326 327 330 335 336 337 339 339 341 343 342 341 342 342 342 342 342 344 345 346 348 349 349 350 350 351 353 353 352 352 352 353 355 358 359 358 359 357 356 358 360 360 359 359 357 356 353 351 351
320 320 323 322 324 323 322 324 324 322 322 323 324 325 325 327 330 333 332 334 336 339 342 340 342 342 342 342 344 346 348 349 351 350 350 350 351 351 352 353 353 353 353 352 350 349 351 354 355 357 357 358 358 358 356 355 355 356 355 354 350 348 350
309 303 319 321 321 322 322 321 322 323 323 323 324 325 326 328 329 330 332 333 335 335 335 336 337 337 341 342 343 344 345 344 346 347 349 350 351 353 355 355 353 353 352 349 348 346 344 347 349 352 355 356 355 352 351 352 353 354 353 349 348 347 348
310 317 319 322 323 322 320 320 320 320 322 322 323 325 327 328 328 330 331 331 332 333 333 335 330 331 334 336 338 340 342 345 347 348 349 350 352 355 356 355 354 353 350 347 345 344 343 346 348 349 349 349 349 350 349 349 350 350 349 347 346 345 345
317 319 321 321 322 319 317 317 319 320 320 321 322 324 325 326 326 328 329 331 331 334 335 337 338 336 334 335 337 336 338 340 342 345 348 351 352 352 354 357 358 355 355 353 351 349 348 349 348 347 346 345 346 346 346 347 350 348 346 346 346 345 343
310 312 315 320 313 312 316 317 317 318 320 321 322 323 322 323 325 326 326 327 328 328 330 334 338 338 338 338 339 337 340 342 344 345 346 348 349 349 351 352 353 353 354 353 352 350 350 350 348 347 345 345 346 345 346 347 349 348 345 344 343 341 342
310 314 320 321 319 318 318 318 320 321 320 320 319 319 321 322 324 324 325 324 325 325 326 328 330 334 336 338 339 337 339 342 343 345 346 345 345 344 347 348 350 351 352 352 353 351 351 350 348 347 346 345 346 345 347 348 347 347 345 342 340 339 340
314 317 319 320 319 314 314 316 318 320 321 320 318 319 320 321 322 323 323 323 322 322 323 324 327 328 330 332 334 336 339 341 343 344 344 344 343 342 344 346 348 349 350 351 351 350 351 350 348 348 345 345 346 344 345 346 346 346 344 342 340 339 338
313 317 319 319 318 318 319 318 318 319 320 318 317 319 321 320 319 321 321 320 320 320 320 321 324 327 328 328 330 331 333 335 339 340 341 341 341 341 341 343 345 347 347 348 349 350 350 350 348 347 346 345 345 343 345 345 345 344 344 345 343 341 342
Wind_Speed
16 18 17 18 15 13 14 16 19 17 13 15 12 14 16 13 14 16 8 9 11 8 11 13 13 13 14 13 11 11 11 12 12 13 14 16 17 18 19 19 18 20 19 19 19 19 18 18 17 18 17 17 18 17 16 17 17 16 16 16 16 14 14
15 16 17 19 20 13 9 17 17 13 10 14 16 15 9 12 15 12 12 13 11 13 12 11 18 19 18 16 15 14 11 11 15 15 15 15 17 18 20 20 20 21 21 22 21 19 20 20 20 19 19 18 17 17 17 17 16 17 16 16 16 15 15
17 16 16 17 20 21 16 11 10 14 13 16 11 9 18 17 15 13 14 16 13 14 12 9 11 15 16 15 15 13 11 12 14 14 16 16 16 16 18 19 17 17 18 19 19 20 21 20 19 19 19 18 16 16 17 18 19 19 18 15 14 13 13
17 18 15 17 17 19 23 12 12 17 14 14 14 13 9 9 15 13 17 17 13 13 12 12 11 10 11 10 10 8 8 11 13 12 13 14 15 16 17 18 19 19 20 22 23 22 21 20 19 18 20 18 19 18 17 17 17 16 16 16 15 15 14
16 16 15 19 17 17 18 14 14 11 12 10 13 14 15 15 15 14 13 15 13 10 12 15 15 11 11 11 12 11 11 11 12 12 12 13 16 17 17 17 18 20 20 21 21 21 20 19 18 18 19 20 20 19 19 20 19 18 18 17 16 14 13
13 13 16 20 21 18 16 16 18 14 13 15 16 17 14 16 15 12 13 16 10 7 9 10 14 14 14 14 14 13 13 14 11 10 12 14 14 16 16 16 16 16 16 17 18 17 16 17 18 19 18 18 19 20 18 18 18 18 18 17 15 14 13
12 15 15 17 20 21 19 16 17 20 15 14 14 13 14 15 17 19 17 13 15 8 7 11 14 16 16 15 15 14 12 15 11 8 10 12 13 14 15 15 15 14 15 15 15 17 18 19 18 18 17 17 18 19 19 18 18 19 19 17 15 13 13
11 12 15 14 17 19 20 19 18 18 20 20 17 14 13 15 14 15 16 17 12 8 6 8 10 10 13 14 15 15 16 15 5 7 7 9 11 11 12 13 13 13 13 14 14 17 17 16 16 18 17 16 16 17 18 18 19 20 19 16 15 14 15
9 11 13 12 13 15 15 16 18 20 20 23 21 18 14 16 19 19 17 20 12 12 7 3 8 12 18 16 15 12 11 11 9 7 7 7 9 9 11 13 13 12 13 15 15 16 16 16 16 15 16 17 16 16 17 17 17 18 17 15 15 16 17
15 15 16 16 16 17 13 17 20 22 24 25 19 19 17 16 14 20 17 15 14 12 12 12 12 13 10 10 11 11 10 11 8 4 6 7 8 9 11 12 14 15 14 13 13 14 14 15 15 15 15 16 16 16 17 17 16 15 16 16 17 18 17
14 12 10 10 11 12 17 18 21 21 22 25 23 15 16 17 12 18 18 16 12 18 17 16 16 13 14 13 14 18 16 12 11 7 8 8 9 9 12 13 12 11 13 16 17 16 15 16 16 15 16 16 16 15 16 16 14 13 14 16 16 17 17
18 16 13 11 15 16 17 21 20 19 18 20 24 21 20 15 13 16 14 17 18 18 16 15 16 16 14 13 12 13 12 11 10 7 7 8 9 10 10 12 14 16 16 15 15 16 16 16 15 14 15 15 15 15 15 14 14 13 13 15 16 16 16
22 23 21 18 15 15 16 18 19 21 22 20 21 21 24 21 17 18 13 16 19 19 22 20 15 14 13 14 16 18 19 15 5 6 8 9 11 11 13 14 15 15 16 16 17 17 16 16 17 16 15 14 13 13 12 12 13 14 13 14 15 15 14
21 23 24 22 22 18 20 20 21 23 24 24 23 23 23 26 21 19 18 17 21 19 19 22 24 18 18 15 15 16 16 17 10 7 8 10 11 13 14 15 16 16 16 15 15 16 16 17 17 16 15 14 15 14 14 14 14 14 13 14 14 14 14
19 22 22 22 23 22 22 21 22 22 21 24 25 23 23 23 24 25 25 22 20 15 15 17 18 17 18 18 18 18 18 18 15 11 11 11 12 13 14 13 14 14 15 15 15 17 17 18 18 16 15 14 14 15 14 15 15 14 14 14 15 14 12
13 16 20 21 20 21 21 20 21 22 22 22 20 21 21 21 20 21 23 21 19 16 18 18 18 19 18 18 17 18 16 20 16 12 12 12 13 13 14 14 14 14 16 17 18 19 19 18 17 15 14 14 14 14 14 14 14 14 14 14 14 13 13
12 14 18 20 20 17 18 20 19 20 21 21 20 20 22 24 22 20 20 19 15 15 15 16 17 21 22 21 18 17 16 13 13 13 13 13 13 13 13 14 16 18 19 19 18 17 16 16 15 16 15 14 14 14 13 13 12 14 14 14 14 14 15
9 9 8 10 14 18 15 12 19 21 22 22 23 21 21 21 21 17 16 15 15 16 16 20 19 20 19 16 14 15 12 12 11 12 12 11 10 9 11 13 14 13 12 12 13 15 15 15 16 14 14 13 12 12 13 12 13 13 13 13 14 15 16
8 9 7 7 14 14 5 5 8 15 20 21 22 21 21 20 19 19 20 18 17 15 17 19 17 14 14 16 17 15 11 8 8 8 9 9 10 10 10 11 12 14 14 13 14 14 14 14 13 13 12 11 11 12 12 13 13 13 13 13 14 15 16
5 8 9 12 14 7 4 2 3 4 8 13 17 21 22 23 22 20 21 22 20 17 16 16 15 14 10 5 6 7 8 8 9 11 10 10 10 12 11 12 13 14 15 16 15 15 13 13 13 13 13 13 13 13 13 13 13 12 13 13 13 14 15
4 7 12 12 5 7 11 6 8 7 4 4 8 12 16 20 20 21 19 20 21 21 19 18 14 7 6 9 9 11 12 11 12 12 11 10 11 11 12 13 14 14 14 14 15 14 14 14 14 13 13 13 13 13 13 12 12 12 12 13 13 14 14
4 4 6 8 9 11 5 6 3 5 6 7 6 5 10 12 17 20 20 18 18 21 20 18 9 6 7 11 13 13 15 13 11 10 9 9 10 12 13 12 13 14 14 14 14 14 15 14 14 13 14 14 13 13 12 12 13 12 12 12 12 13 13
7 6 5 8 11 2 6 5 6 6 5 5 5 5 12 11 17 18 19 21 20 20 19 14 10 9 10 12 12 10 12 11 10 10 9 9 10 11 13 15 16 16 15 16 16 14 14 14 14 14 15 16 14 13 12 12 11 11 11 11 12 12 13
9 7 8 9 7 2 2 9 9 9 3 3 5 9 11 6 16 15 14 19 20 18 17 12 12 12 12 13 9 8 9 9 9 9 10 10 11 11 12 13 15 14 14 16 15 15 15 14 15 15 15 14 13 12 11 10 10 10 10 10 10 10 12
11 9 8 7 7 5 8 11 10 6 4 5 8 11 3 11 13 12 11 13 13 11 11 13 12 13 8 1 6 8 10 10 9 8 9 10 10 11 12 13 15 14 13 14 16 16 13 14 13 13 13 13 13 12 11 10 10 9 8 8 9 10 10
14 12 12 9 6 3 3 6 5 6 2 8 8 8 9 12 12 10 9 10 11 10 11 10 10 6 7 7 7 9 9 10 11 11 12 13 13 13 14 15 13 14 14 14 15 14 13 13 13 12 12 13 12 12 11 10 9 8 8 8 9 9 10
11 11 11 7 9 4 5 7 3 7 6 5 8 10 11 9 8 9 7 5 6 7 9 10 7 10 10 11 10 10 11 12 13 14 15 16 17 17 17 15 14 15 14 14 14 14 11 11 10 11 13 13 12 11 11 10 9 9 9 9 10 10 10
13 12 12 7 3 7 4 5 5 4 4 8 10 9 9 7 6 7 4 3 3 3 3 6 8 11 13 12 13 12 12 13 13 14 15 16 17 17 16 16 15 15 14 13 12 11 10 9 9 9 10 11 11 11 12 10 9 9 10 10 9 9 9
11 8 8 5 7 7 8 9 8 5 5 7 8 7 5 6 6 5 4 5 5 3 6 6 9 11 14 16 15 16 16 17 16 16 15 15 16 17 17 15 14 14 15 15 14 12 10 10 9 8 7 10 11 12 10 8 9 9 10 10 10 9 9
5 8 9 6 5 6 10 11 9 8 7 8 7 7 6 7 4 6 7 8 9 8 7 9 11 14 17 18 17 17 16 17 17 17 18 17 17 17 16 15 14 14 13 13 14 15 11 10 10 8 8 8 11 9 8 7 6 6 7 7 7 7 6
4 3 4 4 6 5 8 12 12 11 8 8 8 8 8 8 6 8 13 13 13 11 8 8 11 15 17 17 16 15 15 16 16 17 16 15 14 13 13 11 12 11 12 12 11 12 11 8 8 8 8 8 9 8 8 7 7 7 7 8 7 6 6
3 4 5 6 7 9 10 9 8 9 8 8 9 9 9 9 10 10 14 17 17 13 11 10 11 16 16 16 15 14 14 14 14 14 14 14 13 12 12 12 12 13 13 13 12 11 9 8 8 8 8 9 8 8 8 8 8 8 8 8 8 7 7
5 5 4 5 8 11 12 11 10 8 6 7 10 12 13 13 13 13 16 18 15 13 12 11 12 14 15 15 15 16 14 14 13 13 12 12 12 11 11 11 11 11 12 13 12 12 10 8 8 8 8 8 8 8 7 8 8 9 9 9 8 8 6
4 1 4 7 5 4 5 10 10 9 8 7 11 12 15 15 15 13 15 17 17 16 15 13 12 13 12 13 13 15 13 13 13 13 12 12 12 12 11 10 12 13 12 12 12 11 9 8 8 8 8 7 7 7 8 8 8 9 9 8 8 7 6
3 5 4 5 7 9 6 6 8 10 8 10 14 15 14 14 14 14 14 15 16 17 16 15 14 13 12 13 13 15 13 12 11 11 12 12 11 11 11 11 12 11 11 10 11 10 8 7 8 8 8 7 6 7 6 7 8 9 7 7 5 6 6
5 4 3 3 4 5 7 6 9 8 7 10 14 14 14 14 13 12 14 15 15 13 14 16 15 14 13 13 14 14 13 13 12 12 11 12 11 11 10 10 10 10 10 9 9 9 7 7 7 7 7 7 6 7 7 7 8 7 7 6 6 6 6
5 5 7 10 12 11 8 9 9 8 9 11 12 12 13 13 14 13 13 12 14 14 13 13 14 14 13 12 13 13 12 12 12 11 11 11 11 10 9 10 9 8 8 7 7 7 7 7 7 6 7 7 6 7 7 6 6 7 7 6 6 5 7
Wind_Direction
194 196 197 212 216 214 189 208 216 221 218 227 230 243 241 239 232 237 204 208 223 247 248 246 253 255 254 251 245 235 226 208 199 202 202 201 200 198 197 199 198 195 193 193 194 195 195 196 195 195 192 190 192 191 191 193 195 193 193 194 196 196 196
190 196 197 210 215 237 193 210 214 216 246 253 230 226 180 221 232 231 224 218 221 220 241 228 240 241 245 244 249 247 228 201 201 205 203 201 201 197 195 198 198 195 192 192 195 196 195 194 193 191 191 191 191 190 190 190 191 195 195 195 196 195 194
192 202 201 208 216 214 238 224 191 212 189 213 221 233 225 217 225 243 233 233 229 226 229 221 215 226 233 239 244 249 227 206 209 208 204 202 198 195 197 200 199 199 197 195 195 197 197 196 191 188 190 189 188 191 192 191 191 193 194 194 194 194 194
185 197 199 211 201 205 227 241 237 215 230 220 211 211 252 233 233 231 238 230 224 215 233 219 211 207 216 224 229 224 241 212 209 208 204 196 193 195 198 199 199 199 199 198 196 195 195 194 191 189 190 191 192 192 191 194 195 193 192 192 189 191 192
188 200 196 212 204 195 199 205 225 207 220 227 238 220 217 233 241 238 242 236 230 210 221 223 228 224 243 251 256 260 257 258 226 207 198 190 193 196 200 201 201 200 200 201 199 195 193 192 189 191 192 192 194 193 193 193 192 192 193 193 190 189 186
202 213 195 215 214 209 199 206 215 215 203 207 212 229 217 227 229 227 235 244 244 204 207 205 226 233 236 243 251 258 263 256 242 204 194 191 195 201 201 203 206 206 204 202 200 195 192 191 191 193 194 193 194 196 196 196 197 196 195 191 190 185 184
212 216 211 205 223 223 218 205 213 215 223 221 223 225 213 221 231 245 239 251 240 228 198 193 219 228 229 239 245 254 254 259 261 205 199 196 200 202 202 202 206 205 200 198 195 192 193 194 192 191 192 195 194 195 195 195 197 198 198 192 186 179 177
222 209 223 205 211 225 228 221 218 211 218 218 226 225 226 236 220 231 235 236 242 218 207 184 205 219 240 240 251 257 255 261 243 208 196 194 197 204 204 204 207 203 196 189 187 189 191 192 191 190 191 192 193 195 196 195 197 197 197 190 180 176 178
226 226 207 205 203 218 224 225 215 219 223 222 229 235 227 235 229 229 233 237 223 218 228 179 255 226 222 224 226 231 241 255 251 213 194 189 193 192 199 204 206 199 194 187 187 185 185 187 187 188 190 191 192 193 196 197 197 196 193 187 179 179 185
207 205 202 198 199 206 216 226 225 217 222 222 219 224 224 234 233 232 234 234 236 232 204 204 216 228 223 220 242 260 252 252 252 194 178 177 184 193 196 200 198 199 195 185 179 181 182 181 183 185 188 189 192 193 197 198 197 193 187 187 184 186 191
222 221 221 214 216 198 218 213 223 225 220 226 229 234 234 228 221 235 236 247 242 227 210 207 210 216 226 229 231 242 248 243 251 223 198 184 185 187 194 195 197 192 190 187 183 180 179 180 182 183 185 189 192 193 196 198 194 189 185 186 186 184 185
240 240 229 224 215 224 212 220 216 223 229 224 230 224 231 236 236 235 228 238 235 237 229 209 215 223 225 235 249 258 250 253 243 215 180 185 186 188 186 190 192 196 193 186 185 184 181 182 182 184 187 190 191 191 193 192 190 188 185 186 185 186 188
232 237 242 231 222 224 232 220 222 217 219 220 225 232 236 234 232 242 229 222 232 230 234 237 223 224 232 232 238 246 258 262 220 182 199 204 202 191 189 193 195 195 196 193 188 185 183 181 182 184 185 187 188 189 189 188 191 190 184 183 185 187 185
226 229 232 237 237 225 225 233 227 226 224 223 224 230 232 235 239 243 244 237 231 228 227 235 246 242 247 246 246 247 251 263 258 216 208 215 212 202 196 196 195 195 199 194 188 184 181 183 183 184 184 185 186 185 185 187 190 187 180 182 183 183 182
233 229 230 232 233 232 232 228 235 236 230 228 226 227 229 232 238 239 239 240 239 225 230 237 240 244 247 250 243 243 249 256 258 239 227 224 220 211 202 195 193 192 194 193 184 182 182 184 183 182 182 182 183 186 186 186 185 185 181 181 192 191 180
229 225 229 229 233 234 237 235 231 230 234 236 228 227 223 228 230 232 237 237 237 235 233 234 236 239 240 240 233 234 234 245 249 239 234 228 218 212 201 194 190 188 190 189 185 184 183 183 181 179 178 177 178 185 184 184 183 182 180 176 178 179 177
235 220 220 224 224 229 230 229 230 234 236 237 239 239 229 228 232 233 230 236 240 236 230 232 228 234 234 233 229 231 233 234 237 233 232 230 219 211 198 191 188 191 191 190 186 179 180 181 180 180 175 175 181 182 181 181 179 180 182 181 177 181 188
239 222 228 225 227 226 227 219 225 227 233 230 234 237 238 231 225 238 240 243 236 226 226 226 230 226 229 225 218 220 222 225 223 231 237 243 238 221 207 199 195 190 187 181 178 177 180 181 181 178 178 177 176 176 175 174 177 179 178 182 183 190 194
233 207 198 219 226 230 234 280 248 234 232 234 240 241 242 245 239 239 244 243 245 231 226 232 231 229 229 230 235 230 224 225 231 228 231 227 223 214 203 197 191 181 176 172 168 174 179 180 174 171 171 170 164 167 170 171 175 174 177 177 183 192 194
235 223 212 231 231 241 262 272 341 325 278 254 246 243 239 238 238 235 238 239 240 237 230 232 235 243 234 230 240 248 245 236 233 235 231 220 211 206 200 184 181 174 174 170 169 168 167 166 167 167 165 167 165 166 168 168 170 172 174 178 181 190 191
241 231 224 241 270 269 256 237 48 13 350 306 275 261 237 233 236 237 235 233 235 233 233 238 239 213 220 248 249 236 232 225 228 234 236 225 208 197 185 180 178 172 169 164 160 154 157 159 158 161 161 163 164 163 167 170 171 174 175 179 184 186 188
237 262 245 227 217 231 158 54 83 9 355 323 316 281 265 243 239 232 233 232 230 234 237 238 207 155 222 244 249 238 226 212 213 220 229 221 202 193 185 176 167 164 160 152 148 152 151 156 158 159 160 160 158 161 165 167 172 175 179 181 180 179 184
225 220 241 247 244 231 69 59 12 354 350 291 344 273 254 237 244 236 230 229 223 227 231 216 170 201 223 235 241 232 202 194 193 193 197 197 185 175 167 159 155 156 151 145 147 152 155 157 157 156 157 154 155 157 162 167 171 174 180 181 180 180 183
216 241 236 238 255 147 31 10 354 342 294 79 226 246 241 21 351 336 279 237 225 223 226 193 192 203 221 227 233 156 168 172 170 171 170 168 157 154 152 155 152 150 147 142 151 153 154 152 151 153 152 153 150 151 154 160 165 174 179 180 180 178 182
209 224 240 252 262 97 25 2 336 336 277 228 221 231 336 347 322 321 316 308 280 244 211 190 209 206 229 43 100 142 144 146 147 158 164 161 163 156 156 145 140 137 142 144 146 145 140 144 146 148 147 141 141 144 148 157 165 170 170 169 174 178 185
223 215 233 231 238 102 314 359 12 10 249 221 235 14 314 300 309 315 314 291 281 264 231 207 218 178 150 143 137 137 143 137 136 142 145 142 133 121 116 124 133 134 134 131 128 124 131 138 140 143 143 137 137 141 147 151 154 153 152 163 172 177 186
224 226 231 215 231 121 28 350 150 50 291 344 338 312 318 320 313 323 325 304 281 272 243 219 176 153 148 139 133 126 125 129 129 130 127 124 122 121 122 123 128 127 124 123 119 120 126 129 134 138 135 132 132 138 139 141 140 143 151 161 168 176 184
219 212 218 227 169 98 93 43 9 27 332 314 313 320 305 341 340 337 330 7 345 269 240 178 155 136 120 115 117 116 112 108 107 105 105 105 106 110 110 112 113 108 103 103 104 104 105 110 119 124 127 126 132 135 134 135 141 145 152 159 165 174 180
228 250 233 101 97 103 86 82 92 80 4 339 336 321 326 347 11 351 41 64 86 120 140 135 133 128 120 114 112 109 105 98 94 91 91 97 102 104 104 104 108 111 115 117 113 107 107 106 101 108 116 124 130 127 124 133 144 150 155 157 167 172 178
85 63 63 94 68 79 96 89 79 60 30 10 1 3 11 3 18 41 53 69 74 90 110 123 118 111 106 101 98 94 90 90 88 91 91 89 92 98 103 107 108 107 107 109 113 112 106 99 101 103 113 122 119 113 115 123 132 137 144 151 163 163 162
194 186 99 114 96 70 65 79 73 68 40 15 4 14 21 19 24 70 65 64 64 64 71 91 100 97 93 92 89 86 83 79 79 77 75 73 73 75 77 88 103 105 102 96 89 90 89 86 92 96 98 96 100 109 118 127 129 132 135 146 151 153 158
229 91 113 90 82 78 62 55 66 62 37 30 17 11 26 32 30 38 62 62 53 49 52 46 77 86 87 90 93 91 86 84 83 82 82 83 79 73 77 81 86 89 92 95 95 94 91 92 95 98 97 100 110 119 126 132 130 131 133 142 147 150 156
102 115 93 108 95 73 63 66 61 53 24 24 32 22 23 26 34 45 54 60 61 45 34 34 44 62 73 84 89 91 89 87 86 86 86 84 87 89 83 77 80 87 92 93 94 96 97 99 98 99 104 112 119 124 131 127 136 135 133 138 139 136 146
225 239 160 172 174 135 79 58 52 48 36 31 49 36 31 26 24 32 51 61 60 52 37 31 39 50 59 68 77 79 79 84 90 93 91 88 85 82 83 85 82 81 83 91 95 95 98 102 104 105 104 109 121 127 123 126 130 123 126 131 131 142 158
63 34 137 69 58 75 58 93 77 51 36 50 51 46 36 34 30 28 41 52 53 49 41 31 35 41 48 55 65 71 67 64 67 75 82 86 87 86 86 84 80 81 85 90 92 92 94 99 101 102 103 104 98 97 104 112 112 111 118 122 161 163 173
69 18 94 81 102 104 114 83 77 75 52 59 61 52 47 39 31 31 40 39 46 49 46 40 32 33 42 46 54 64 65 62 60 61 66 73 79 81 79 79 81 82 83 83 85 89 91 91 92 95 98 96 97 100 97 95 100 113 131 155 171 181 149
79 51 96 100 105 104 89 77 60 59 63 68 64 55 45 43 35 30 34 36 40 45 45 40 29 22 29 42 51 57 61 61 59 66 68 66 65 71 80 83 83 83 83 85 91 92 93 93 91 92 92 89 87 86 93 103 121 138 156 164 169 128 116